Погода в Звездном

Россия / Ханты-Мансийский автономный округ - Югра     61°16′47″N   73°24′18″E
темп.,
°C
ветер,
м/с
пор.,
м/с
влажн.,
%
обл.,
%
осадки,
мм/ч
давл.,
гПа
погр.,
м
15 мая, сб
сб1523:00+17юз22595 0.0 101125
02:00+15ссз346699 0.0 101258
05:00+12св597299 0.0 1013388
08:00+9всв688184 1.0 1015349
11:00+12всв556792 1.0 1017671
14:00+13всв5456100 0.0 1017788
17:00+12всв675896 0.0 1016585
20:00+10в5767100 0.0 1015402
16 мая, вс
вс1623:00+10в5867100 0.1 1015390
02:00+9в4775100 0.0 1013345
05:00+8всв5775100 0.0 1013363
08:00+7всв5773100 0.0 1014408
11:00+10всв446285 0.0 1015601
14:00+13всв33568 0.0 1016893
17:00+14св2253100 0.0 10171121
20:00+12всв2261100 0.0 101795
17 мая, пн
пн1723:00+10ююв3568100 0.0 1017254
02:00+9ююв4777100 0.0 1016280
05:00+9ююв4988100 0.0 1014256
08:00+11ююз31095100 4.3 1011498
11:00+13всв2488100 5.1 1010376
14:00+14св1184100 0.3 1010228
17:00+15ссв338199 0.6 1009586
20:00+12св3688100 0.0 1009242
18 мая, вт
вт1823:00+10всв3692100 0.0 1009272
02:00+9всв249394 0.0 1010196
05:00+9св3591100 0.0 1010325
08:00+8св4790100 0.0 1010449
11:00+8св5787100 0.1 1012501
14:00+10св5773100 0.0 1014764
17:00+13ссв575039 0.0 10151667
20:00+10с495549 0.0 1016276
19 мая, ср
ср1923:00+7с5115783 0.0 1018294
02:00+5ссв612718 0.0 1019435
05:00+5ссв510675 0.0 1022680
08:00+6ссв6845100 0.0 10231132
11:00+7ссв673587 0.0 10241521
14:00+9с6730100 0.0 10251734
17:00+8с572889 0.0 10261722
20:00+7с473679 0.0 1026561